Погода в Гаровке-1

Россия / Хабаровский край     48°26′40″N   135°13′12″E
темп.,
°C
ветер,
м/с
пор.,
м/с
влажн.,
%
обл.,
%
осадки,
мм/ч
давл.,
гПа
погр.,
м
12 апреля, пн
пн1201:00+7зюз41089100 0.6 1019321
04:00+6з2392100 5.8 101875
07:00+5в1195100 3.1 101716
10:00+6вюв2498100 4.2 1016176
13:00+10зюз2772100 0.8 1013598
16:00+9св237475 0.8 100990
19:00+10ссз3870100 0.2 1007218
22:00+13ююз81652100 0.3 1006688
13 апреля, вт
вт1301:00+11юз71560100 0.1 1004720
04:00+9ююз61276100 0.1 1003666
07:00+4сз4692100 1.4 1002493
10:00−1ссв4594100 4.8 1002318
13:00−1ссв5591100 1.6 1002511
16:00−2ссв3592100 3.7 1002527
19:00−2в2395100 1.3 1003345
22:00−3зюз81386100 3.4 1002851
14 апреля, ср
ср1401:00−4зюз71190100 1.1 1001689
04:00−4зюз81489100 1.6 1002797
07:00−5з5996100 0.9 1003631
10:00−3зюз7977100 1.7 10051050
13:00−1з7971100 0.1 10061537
16:000з596431 0.2 10061440
19:00−1з496824 0.1 1007324
22:00−3зюз4107974 0.1 1010189
15 апреля, чт
чт1501:00−4зюз4108247 0.0 1011230
04:00−4зюз511793 0.0 1012322
07:00−4зюз49844 0.0 1014286
10:00+1зюз57640 0.0 1015770
13:00+3з46463 0.0 10151513
16:00+5з13392 0.0 10141438
19:00+3всв236217 0.0 101548
22:000в51073100 0.0 1014163
16 апреля, пт
пт1601:000всв4972100 0.0 1012189
04:000всв4974100 0.0 1011193
07:00+1в4878100 0.0 1009163
10:00+6в476199 0.0 1009402
13:00+7вюв41074100 0.9 10081004
16:00+7юз71285100 3.6 10061108
19:00+6юз3474100 1.3 1009119
22:00+4ююв4986100 1.8 1011234